Location: Lanoux
(43.1180°N, 1.4255°E)
Time: 03:17:15
(UTC+00:00)

Meteor 2-10 - Pass Details

Date: 15 March 2026
Orbit: 736 x 866 km, 81.2° (Epoch: 13 April)

Event Time Altitude Azimuth Distance (km) Brightness Sun altitude
Rises 20:23:46 0° 237° (WSW) 3,297 7.7 -26.3°
Reaches altitude 10° 20:27:14 10° 260° (W) 2,344 7.2 -26.8°
Maximum altitude 20:30:12 15° 295° (WNW) 1,992 7.0 -27.3°
Drops below altitude 10° 20:33:09 10° 330° (NNW) 2,307 7.2 -27.8°
Sets 20:36:32 0° 354° (N) 3,215 7.7 -28.4°
